| time (UTC) | temp C | wind direction | speed KPH | gust KPH | rain 1hr cm | rain 24hr cm | rain mn cm | humidity % | barometer mb |
| 20260505035624 | 17 | 231 | 3.2 | 4.8 | 0.00 | 0.00 | 0.00 | 53 | 1002.8 |
| 20260505035121 | 17 | 225 | 3.2 | 3.2 | 0.00 | 0.00 | 0.00 | 52 | 1002.6 |
| 20260505034617 | 17 | 225 | 1.6 | 3.2 | 0.00 | 0.00 | 0.00 | 52 | 1002.8 |
| 20260505034114 | 17 | 225 | 3.2 | 4.8 | 0.00 | 0.00 | 0.00 | 51 | 1002.7 |
| 20260505033611 | 18 | 238 | 1.6 | 3.2 | 0.00 | 0.00 | 0.00 | 52 | 1002.8 |
| 20260505033110 | 18 | 241 | 1.6 | 3.2 | 0.00 | 0.00 | 0.00 | 51 | 1003.1 |
| 20260505032607 | 18 | 241 | 3.2 | 3.2 | 0.00 | 0.00 | 0.00 | 50 | 1003.1 |
| 20260505032103 | 18 | 221 | 4.8 | 12.9 | 0.00 | 0.00 | 0.00 | 49 | 1003.3 |
| 20260505031601 | 18 | 245 | 6.4 | 9.7 | 0.00 | 0.00 | 0.00 | 48 | 1003.3 |
| 20260505031057 | 18 | 243 | 4.8 | 9.7 | 0.00 | 0.00 | 0.00 | 46 | 1003.1 |
| 20260505030554 | 18 | 241 | 3.2 | 9.7 | 0.00 | 0.00 | 0.00 | 44 | 1003.1 |
| 20260505030050 | 18 | 250 | 6.4 | 14.5 | 0.00 | 0.00 | 0.00 | 44 | 1003.1 |
| 20260505025545 | 17 | 247 | 17.7 | 24.1 | 0.00 | 0.00 | 0.00 | 45 | 1003.0 |
| 20260505025045 | 17 | 235 | 1.6 | 1.6 | 0.00 | 0.00 | 0.00 | 45 | 1002.7 |
| 20260505024541 | 17 | 237 | 1.6 | 1.6 | 0.00 | 0.00 | 0.00 | 46 | 1002.9 |
| 20260505024038 | 16 | 237 | 1.6 | 1.6 | 0.00 | 0.00 | 0.00 | 46 | 1002.9 |
| 20260505023535 | 16 | 237 | 0.0 | 1.6 | 0.00 | 0.00 | 0.00 | 50 | 1003.0 |
| 20260505023033 | 16 | 237 | 1.6 | 1.6 | 0.00 | 0.00 | 0.00 | 47 | 1002.9 |
| 20260505022531 | 16 | 237 | 1.6 | 1.6 | 0.00 | 0.00 | 0.00 | 48 | 1003.0 |
| 20260505022028 | 16 | 237 | 0.0 | 3.2 | 0.00 | 0.00 | 0.00 | 47 | 1003.2 |
| 20260505021524 | 16 | 245 | 1.6 | 1.6 | 0.00 | 0.00 | 0.00 | 51 | 1003.1 |
| 20260505021021 | 16 | 245 | 0.0 | 1.6 | 0.00 | 0.00 | 0.00 | 49 | 1003.1 |
| 20260505020520 | 16 | 245 | 1.6 | 1.6 | 0.00 | 0.00 | 0.00 | 49 | 1003.1 |
| 20260505020018 | 16 | 245 | 0.0 | 1.6 | 0.00 | 0.00 | 0.00 | 50 | 1003.1 |
| 20260505015515 | 16 | 245 | 0.0 | 6.4 | 0.00 | 0.00 | 0.00 | 50 | 1003.0 |
| 20260505015012 | 16 | 244 | 0.0 | 1.6 | 0.00 | 0.00 | 0.00 | 53 | 1003.3 |
| 20260505014509 | 16 | 244 | 0.0 | 1.6 | 0.00 | 0.00 | 0.00 | 50 | 1003.1 |
| 20260505014006 | 16 | 244 | 0.0 | 0.0 | 0.00 | 0.00 | 0.00 | 51 | 1003.2 |
| 20260505013503 | 15 | 245 | 0.0 | 1.6 | 0.00 | 0.00 | 0.00 | 51 | 1003.3 |
| 20260505013000 | 15 | 245 | 0.0 | 1.6 | 0.00 | 0.00 | 0.00 | 52 | 1003.4 |
| 20260505012458 | 15 | 245 | 1.6 | 1.6 | 0.00 | 0.00 | 0.00 | 54 | 1003.2 |
| 20260505011955 | 15 | 245 | 0.0 | 1.6 | 0.00 | 0.00 | 0.00 | 54 | 1003.2 |
| 20260505011450 | 15 | 245 | 0.0 | 1.6 | 0.00 | 0.00 | 0.00 | 54 | 1003.2 |
| 20260505010948 | 15 | 245 | 0.0 | 0.0 | 0.00 | 0.00 | 0.00 | 54 | 1003.0 |
| 20260505010443 | 15 | 245 | 0.0 | 0.0 | 0.00 | 0.00 | 0.00 | 54 | 1003.2 |
| 20260505005939 | 16 | 245 | 0.0 | 0.0 | 0.00 | 0.00 | 0.00 | 51 | 1003.2 |
| 20260505005436 | 16 | 245 | 0.0 | 0.0 | 0.00 | 0.00 | 0.00 | 50 | 1003.0 |
| 20260505004934 | 16 | 245 | 0.0 | 0.0 | 0.00 | 0.00 | 0.00 | 52 | 1003.0 |
| 20260505004431 | 16 | 245 | 0.0 | 0.0 | 0.00 | 0.00 | 0.00 | 49 | 1003.3 |
| 20260505003928 | 16 | 245 | 0.0 | 0.0 | 0.00 | 0.00 | 0.00 | 47 | 1003.1 |
| 20260505003425 | 17 | 245 | 0.0 | 1.6 | 0.00 | 0.00 | 0.00 | 48 | 1003.1 |
| 20260505002921 | 17 | 245 | 0.0 | 0.0 | 0.00 | 0.00 | 0.00 | 47 | 1003.0 |
| 20260505002417 | 17 | 245 | 0.0 | 0.0 | 0.00 | 0.00 | 0.00 | 45 | 1003.1 |
| 20260505001916 | 18 | 245 | 1.6 | 1.6 | 0.00 | 0.00 | 0.00 | 42 | 1003.0 |
| 20260505001413 | 18 | 245 | 0.0 | 0.0 | 0.00 | 0.00 | 0.00 | 42 | 1003.1 |
| 20260505000910 | 19 | 245 | 1.6 | 3.2 | 0.00 | 0.00 | 0.00 | 42 | 1003.2 |
| 20260505000408 | 19 | 245 | 0.0 | 0.0 | 0.00 | 0.00 | 0.00 | 40 | 1003.1 |
| 20260504235904 | 20 | 245 | 1.6 | 1.6 | 0.00 | 0.00 | 0.00 | 40 | 1003.1 |
| 20260504235402 | 20 | 246 | 0.0 | 0.0 | 0.00 | 0.00 | 0.00 | 38 | 1003.1 |
| 20260504234857 | 20 | 246 | 1.6 | 3.2 | 0.00 | 0.00 | 0.00 | 35 | 1003.2 |
| 20260504234355 | 20 | 247 | 1.6 | 1.6 | 0.00 | 0.00 | 0.00 | 37 | 1003.2 |
| 20260504233852 | 21 | 247 | 1.6 | 1.6 | 0.00 | 0.00 | 0.00 | 37 | 1003.2 |
| 20260504233348 | 21 | 247 | 1.6 | 1.6 | 0.00 | 0.00 | 0.00 | 34 | 1003.2 |
| 20260504232844 | 21 | 247 | 1.6 | 3.2 | 0.00 | 0.00 | 0.00 | 35 | 1003.2 |
| 20260504232342 | 21 | 242 | 3.2 | 3.2 | 0.00 | 0.00 | 0.00 | 33 | 1003.2 |
| 20260504231838 | 21 | 241 | 0.0 | 1.6 | 0.00 | 0.00 | 0.00 | 34 | 1003.2 |
| 20260504231335 | 21 | 241 | 1.6 | 4.8 | 0.00 | 0.00 | 0.00 | 33 | 1003.4 |
| 20260504230831 | 21 | 250 | 1.6 | 3.2 | 0.00 | 0.00 | 0.00 | 33 | 1003.3 |
| 20260504230329 | 21 | 249 | 1.6 | 1.6 | 0.00 | 0.00 | 0.00 | 32 | 1003.0 |
| 20260504225828 | 21 | 255 | 0.0 | 3.2 | 0.00 | 0.00 | 0.00 | 32 | 1003.2 |
| 20260504225323 | 22 | 255 | 3.2 | 9.7 | 0.00 | 0.00 | 0.00 | 31 | 1003.2 |
| 20260504224821 | 22 | 266 | 3.2 | 6.4 | 0.00 | 0.00 | 0.00 | 31 | 1003.2 |
| 20260504224318 | 22 | 254 | 1.6 | 3.2 | 0.00 | 0.00 | 0.00 | 32 | 1003.3 |
| 20260504223815 | 22 | 257 | 6.4 | 9.7 | 0.00 | 0.00 | 0.00 | 31 | 1003.0 |
| 20260504223310 | 22 | 263 | 6.4 | 11.3 | 0.00 | 0.00 | 0.00 | 30 | 1002.9 |
| 20260504222807 | 22 | 271 | 4.8 | 11.3 | 0.00 | 0.00 | 0.00 | 30 | 1003.1 |
| 20260504222305 | 22 | 253 | 4.8 | 14.5 | 0.00 | 0.00 | 0.00 | 30 | 1002.8 |
| 20260504221802 | 22 | 247 | 3.2 | 3.2 | 0.00 | 0.00 | 0.00 | 31 | 1003.1 |
| 20260504221258 | 22 | 228 | 6.4 | 12.9 | 0.00 | 0.00 | 0.00 | 29 | 1003.2 |
| 20260504220755 | 22 | 283 | 4.8 | 6.4 | 0.00 | 0.00 | 0.00 | 30 | 1003.1 |
| 20260504220252 | 23 | 249 | 4.8 | 6.4 | 0.00 | 0.00 | 0.00 | 30 | 1003.0 |
| 20260504215749 | 22 | 287 | 8.0 | 11.3 | 0.00 | 0.00 | 0.00 | 29 | 1002.9 |
| 20260504215246 | 23 | 245 | 3.2 | 11.3 | 0.00 | 0.00 | 0.00 | 31 | 1003.0 |
| 20260504214742 | 23 | 293 | 6.4 | 12.9 | 0.00 | 0.00 | 0.00 | 29 | 1003.0 |
| 20260504214238 | 23 | 237 | 9.7 | 16.1 | 0.00 | 0.00 | 0.00 | 29 | 1003.2 |
| 20260504213735 | 22 | 243 | 9.7 | 14.5 | 0.00 | 0.00 | 0.00 | 30 | 1003.1 |
| 20260504213232 | 23 | 241 | 9.7 | 17.7 | 0.00 | 0.00 | 0.00 | 29 | 1003.2 |
| 20260504212729 | 23 | 243 | 6.4 | 6.4 | 0.00 | 0.00 | 0.00 | 30 | 1003.0 |
| 20260504212225 | 23 | 222 | 6.4 | 14.5 | 0.00 | 0.00 | 0.00 | 29 | 1003.2 |
| 20260504211723 | 23 | 255 | 6.4 | 16.1 | 0.00 | 0.00 | 0.00 | 29 | 1003.3 |
| 20260504211219 | 23 | 263 | 12.9 | 14.5 | 0.00 | 0.00 | 0.00 | 29 | 1003.3 |
| 20260504210717 | 23 | 308 | 4.8 | 12.9 | 0.00 | 0.00 | 0.00 | 30 | 1003.3 |
| 20260504210214 | 23 | 271 | 4.8 | 11.3 | 0.00 | 0.00 | 0.00 | 31 | 1003.2 |
| 20260504205711 | 23 | 271 | 9.7 | 12.9 | 0.00 | 0.00 | 0.00 | 30 | 1003.2 |
| 20260504205208 | 23 | 222 | 8.0 | 14.5 | 0.00 | 0.00 | 0.00 | 31 | 1003.1 |
| 20260504204706 | 23 | 210 | 8.0 | 14.5 | 0.00 | 0.00 | 0.00 | 31 | 1003.3 |
| 20260504204205 | 23 | 236 | 4.8 | 12.9 | 0.00 | 0.00 | 0.00 | 32 | 1003.1 |
| 20260504203703 | 23 | 234 | 9.7 | 20.9 | 0.00 | 0.00 | 0.00 | 32 | 1003.4 |
| 20260504203201 | 23 | 219 | 8.0 | 16.1 | 0.00 | 0.00 | 0.00 | 32 | 1003.2 |
| 20260504202700 | 23 | 264 | 3.2 | 4.8 | 0.00 | 0.00 | 0.00 | 34 | 1003.5 |
| 20260504202158 | 22 | 197 | 8.0 | 9.7 | 0.00 | 0.00 | 0.00 | 33 | 1003.4 |
| 20260504201654 | 22 | 261 | 9.7 | 16.1 | 0.00 | 0.00 | 0.00 | 33 | 1003.6 |
| 20260504201152 | 22 | 249 | 6.4 | 14.5 | 0.00 | 0.00 | 0.00 | 33 | 1003.5 |
| 20260504200649 | 22 | 228 | 9.7 | 17.7 | 0.00 | 0.00 | 0.00 | 32 | 1003.7 |
| 20260504200146 | 23 | 202 | 6.4 | 17.7 | 0.00 | 0.00 | 0.00 | 32 | 1003.4 |
| 20260504195642 | 23 | 232 | 4.8 | 6.4 | 0.00 | 0.00 | 0.00 | 36 | 1003.8 |
| 20260504195138 | 22 | 231 | 4.8 | 11.3 | 0.00 | 0.00 | 0.00 | 35 | 1003.9 |
| 20260504194635 | 22 | 251 | 17.7 | 20.9 | 0.00 | 0.00 | 0.00 | 34 | 1003.9 |
| 20260504194131 | 23 | 272 | 9.7 | 12.9 | 0.00 | 0.00 | 0.00 | 35 | 1004.0 |
| 20260504193627 | 23 | 241 | 4.8 | 9.7 | 0.00 | 0.00 | 0.00 | 33 | 1004.1 |
| 20260504193126 | 22 | 249 | 6.4 | 6.4 | 0.00 | 0.00 | 0.00 | 36 | 1004.1 |
| 20260504192623 | 22 | 258 | 6.4 | 11.3 | 0.00 | 0.00 | 0.00 | 36 | 1004.3 |
| 20260504192121 | 22 | 276 | 17.7 | 20.9 | 0.00 | 0.00 | 0.00 | 34 | 1004.4 |
| 20260504191620 | 22 | 247 | 11.3 | 20.9 | 0.00 | 0.00 | 0.00 | 36 | 1004.3 |
| 20260504191115 | 21 | 248 | 4.8 | 17.7 | 0.00 | 0.00 | 0.00 | 37 | 1004.5 |
| 20260504190612 | 22 | 223 | 9.7 | 17.7 | 0.00 | 0.00 | 0.00 | 35 | 1004.5 |
| 20260504190108 | 22 | 258 | 4.8 | 17.7 | 0.00 | 0.00 | 0.00 | 37 | 1004.6 |
| 20260504185605 | 22 | 251 | 9.7 | 14.5 | 0.00 | 0.00 | 0.00 | 35 | 1004.3 |
| 20260504185101 | 22 | 234 | 3.2 | 20.9 | 0.00 | 0.00 | 0.00 | 37 | 1004.6 |
| 20260504184557 | 21 | 270 | 4.8 | 12.9 | 0.00 | 0.00 | 0.00 | 40 | 1004.8 |
| 20260504184052 | 21 | 234 | 9.7 | 22.5 | 0.00 | 0.00 | 0.00 | 38 | 1004.9 |
| 20260504183549 | 21 | 262 | 6.4 | 9.7 | 0.00 | 0.00 | 0.00 | 37 | 1005.0 |
| 20260504183048 | 21 | 263 | 11.3 | 22.5 | 0.00 | 0.00 | 0.00 | 37 | 1004.8 |
| 20260504182544 | 21 | 235 | 8.0 | 16.1 | 0.00 | 0.00 | 0.00 | 41 | 1004.9 |
| 20260504182042 | 21 | 238 | 6.4 | 20.9 | 0.00 | 0.00 | 0.00 | 38 | 1004.8 |
| 20260504181539 | 21 | 241 | 6.4 | 11.3 | 0.00 | 0.00 | 0.00 | 38 | 1005.2 |
| 20260504181037 | 21 | 218 | 9.7 | 12.9 | 0.00 | 0.00 | 0.00 | 39 | 1005.0 |
| 20260504180536 | 21 | 269 | 6.4 | 14.5 | 0.00 | 0.00 | 0.00 | 39 | 1005.1 |
| 20260504180034 | 21 | 220 | 6.4 | 12.9 | 0.00 | 0.00 | 0.00 | 42 | 1005.2 |
| 20260504175531 | 21 | 287 | 8.0 | 14.5 | 0.00 | 0.00 | 0.00 | 40 | 1005.3 |
| 20260504175028 | 21 | 263 | 6.4 | 12.9 | 0.00 | 0.00 | 0.00 | 40 | 1005.4 |
| 20260504174526 | 21 | 211 | 8.0 | 14.5 | 0.00 | 0.00 | 0.00 | 41 | 1005.5 |
| 20260504174022 | 21 | 260 | 9.7 | 14.5 | 0.00 | 0.00 | 0.00 | 39 | 1005.4 |
| 20260504173519 | 20 | 225 | 4.8 | 6.4 | 0.00 | 0.00 | 0.00 | 42 | 1005.4 |
| 20260504173017 | 20 | 282 | 3.2 | 9.7 | 0.00 | 0.00 | 0.00 | 40 | 1005.3 |
| 20260504172513 | 20 | 250 | 8.0 | 12.9 | 0.00 | 0.00 | 0.00 | 39 | 1005.5 |
| 20260504172009 | 20 | 227 | 4.8 | 6.4 | 0.00 | 0.00 | 0.00 | 41 | 1005.5 |
| 20260504171506 | 20 | 224 | 6.4 | 6.4 | 0.00 | 0.00 | 0.00 | 41 | 1005.5 |
| 20260504171003 | 20 | 257 | 4.8 | 16.1 | 0.00 | 0.00 | 0.00 | 39 | 1005.5 |
| 20260504170459 | 20 | 234 | 6.4 | 9.7 | 0.00 | 0.00 | 0.00 | 44 | 1005.5 |
| 20260504160419 | 19 | 147 | 6.4 | 9.7 | 0.00 | 0.00 | 0.00 | 42 | 1005.8 |
| 20260504150843 | 18 | 228 | 14.5 | 17.7 | 0.00 | 0.00 | 0.00 | 42 | 1006.4 |
| 20260504150339 | 17 | 265 | 9.7 | 16.1 | 0.00 | 0.00 | 0.00 | 42 | 1006.5 |
| 20260504141309 | 17 | 212 | 1.6 | 14.5 | 0.00 | 0.00 | 0.00 | 45 | 1006.4 |
| 20260504140806 | 16 | 262 | 8.0 | 14.5 | 0.00 | 0.00 | 0.00 | 43 | 1006.5 |
| 20260504140302 | 17 | 255 | 4.8 | 22.5 | 0.00 | 0.00 | 0.00 | 43 | 1006.5 |
| 20260504130731 | 15 | 228 | 3.2 | 16.1 | 0.00 | 0.00 | 0.00 | 45 | 1006.8 |
| 20260504130226 | 15 | 228 | 3.2 | 4.8 | 0.00 | 0.00 | 0.00 | 46 | 1006.9 |
| 20260504120150 | 13 | 257 | 4.8 | 9.7 | 0.00 | 0.00 | 0.00 | 48 | 1007.0 |
| 20260504110618 | 12 | 238 | 6.4 | 9.7 | 0.00 | 0.00 | 0.00 | 48 | 1007.1 |
| 20260504110114 | 12 | 234 | 4.8 | 4.8 | 0.00 | 0.00 | 0.00 | 49 | 1006.9 |
| 20260504100539 | 12 | 250 | 3.2 | 4.8 | 0.00 | 0.00 | 0.00 | 49 | 1006.6 |
| 20260504081933 | 11 | 237 | 4.8 | 4.8 | 0.00 | 0.00 | 0.00 | 54 | 1007.7 |
| 20260504081430 | 11 | 237 | 4.8 | 4.8 | 0.00 | 0.00 | 0.00 | 54 | 1007.7 |
| 20260504080926 | 11 | 231 | 4.8 | 4.8 | 0.00 | 0.00 | 0.00 | 56 | 1007.6 |
| 20260504080423 | 11 | 231 | 4.8 | 4.8 | 0.00 | 0.00 | 0.00 | 56 | 1007.4 |
| 20260504070350 | 11 | 286 | 9.7 | 11.3 | 0.00 | 0.00 | 0.00 | 55 | 1008.1 |
| 20260504050738 | 12 | 262 | 4.8 | 9.7 | 0.00 | 0.00 | 0.00 | 46 | 1008.6 |
| 20260504050235 | 12 | 253 | 4.8 | 6.4 | 0.00 | 0.00 | 0.00 | 46 | 1008.8 |
| 20260504045732 | 12 | 248 | 6.4 | 6.4 | 0.00 | 0.00 | 0.00 | 45 | 1008.8 |
| 20260504045227 | 12 | 248 | 6.4 | 6.4 | 0.00 | 0.00 | 0.00 | 45 | 1009.0 |
| 20260504044725 | 13 | 254 | 4.8 | 4.8 | 0.00 | 0.00 | 0.00 | 45 | 1008.9 |
| 20260504044222 | 13 | 262 | 8.0 | 9.7 | 0.00 | 0.00 | 0.00 | 45 | 1009.0 |
| 20260504043720 | 13 | 257 | 4.8 | 4.8 | 0.00 | 0.00 | 0.00 | 45 | 1009.0 |
| 20260504043216 | 13 | 249 | 9.7 | 14.5 | 0.00 | 0.00 | 0.00 | 44 | 1008.9 |
| 20260504042714 | 13 | 266 | 6.4 | 6.4 | 0.00 | 0.00 | 0.00 | 44 | 1009.0 |
| 20260504042210 | 13 | 233 | 3.2 | 4.8 | 0.00 | 0.00 | 0.00 | 45 | 1008.9 |
| 20260504041706 | 13 | 252 | 3.2 | 3.2 | 0.00 | 0.00 | 0.00 | 45 | 1008.9 |
| 20260504041202 | 12 | 235 | 9.7 | 12.9 | 0.00 | 0.00 | 0.00 | 45 | 1009.0 |
| 20260504040659 | 13 | 255 | 4.8 | 4.8 | 0.00 | 0.00 | 0.00 | 45 | 1009.1 |
| 20260504040156 | 13 | 255 | 4.8 | 4.8 | 0.00 | 0.00 | 0.00 | 45 | 1009.0 |